Back to catalog

SL-19 R/B

AlivePO
NORAD 35501·ROCKET BODY·🇷🇺 Russia

Launched Jul 6, 2009 from Plesetsk Cosmodrome

Loading…

Next Passes (next 24 hours)

TLE

FreshSource: Space-Track

Epoch: Sep 14, 2026, 01:45 UTC

1 35501U 09036D   26257.07307549  .00000032  00000-0  81248-4 0  9991
2 35501  82.4922 129.7700 0197070  85.6281  85.9884 12.76651707801141

Track SL-19 R/B in real time with AllMySat

Download on the App Store